[[{"header":{"parameterUnit":"m.s-1","parameterCategory":1,"la1":30.2991,"la2":30.254,"lo1":-89.0895,"lo2":-89.0444,"dy":0.0017,"dx":0.0017,"nx":28,"ny":28,"refTime":"2024-06-30T21:00:00:Z","depth":0,"parameterNumber":2,"parameterNumberName":"U-component_of_WINDS"},"data":[0,0,0,0,0,0,0,0,0,0,0,0,0,0,0,0,0,0,0,0,0,0,0,0,0,0,0,0,0,0,0,0,0,0,0,0,0,0,0,0,0,0,0,0,0,0,0,0,0,0,0,0,0,0,0,0,0,0,2.3441,2.3442,0,2.3481,2.3482,2.3482,2.3426,2.3424,2.3422,2.342,2.3461,2.3464,2.3467,0,0,0,0,0,0,0,0,0,0,0,0,0,2.3318,2.3321,2.3441,2.3442,2.3442,2.3481,2.3482,2.3482,2.3427,2.3424,2.3422,2.3419,2.3461,2.3464,2.3468,0,0,0,0,0,0,0,0,0,0,0,0,0,2.3367,2.3322,2.3441,2.3419,2.3418,2.3481,2.3482,2.3483,2.3427,2.3424,2.3421,2.3418,2.3459,2.3464,2.3468,2.3555,0,0,2.3482,2.3483,0,0,0,0,0,0,0,0,2.3364,2.3371,2.3422,2.3421,2.3419,2.3446,2.3454,2.3507,2.3428,2.3424,2.342,2.3417,2.3459,2.3463,2.3477,2.3557,2.3559,2.3482,2.3485,2.3487,2.3488,0,0,0,0,0,0,0,2.3361,2.3369,2.3457,2.3423,2.3421,2.3408,2.3411,2.3463,2.3457,2.3424,2.342,2.3425,2.3457,2.3473,2.3478,2.3559,2.3482,2.3486,2.3488,2.349,2.3716,2.3719,0,0,0,0,0,0,2.336,2.3367,2.3456,2.3458,2.3384,2.3413,2.3416,2.344,2.3457,2.3456,2.3428,2.3422,2.3467,2.3472,2.3479,2.3584,2.3486,2.3491,2.3493,2.3712,2.3716,2.372,0,0,0,0,0,0,2.3357,2.3368,2.3454,2.3412,2.3421,2.3418,2.3445,2.3443,2.3458,2.346,2.3458,2.3445,2.3465,2.3473,2.3537,2.3584,2.3493,2.3497,2.3708,2.3714,2.3718,2.3793,0,0,0,0,0,0,2.3354,2.3368,2.34,2.3413,2.3424,2.3512,2.3448,2.3446,2.3466,2.3459,2.3475,2.3475,2.3463,2.3531,2.3542,2.3589,2.35,2.3704,2.3711,2.3717,2.3786,2.38,2.3812,0,0,0,0,0,2.335,2.3419,2.3402,2.3413,2.3465,2.3514,2.3521,2.3506,2.347,2.3503,2.3505,2.3474,2.3577,2.3538,2.3549,2.3599,2.3701,2.3709,2.3716,2.3781,2.3797,2.3811,0,0,0,0,0,0,2.3412,2.342,2.3402,2.3477,2.3496,2.3505,2.3546,2.3523,2.3552,2.3545,2.3525,2.3529,2.3599,2.3605,2.3561,2.3685,2.3633,2.3644,2.3679,2.3694,2.3707,2.3704,2.3504,0,0,0,0,0,2.3434,2.3474,2.3479,2.3545,2.3556,2.355,2.3571,2.3558,2.3576,2.3583,2.3589,2.3609,2.3646,2.367,2.3704,2.3787,2.3791,2.3827,2.3839,2.385,2.3859,2.3906,2.3923,2.3745,2.3745,2.3744,0,0,2.3481,2.3491,2.3517,2.3558,2.3571,2.3613,2.3556,2.3603,2.3635,2.359,2.3652,2.3658,2.3678,2.3753,2.3786,2.376,2.3909,2.3859,2.3868,2.3871,2.3915,2.3932,2.3947,2.375,2.3749,2.3748,0,0,2.3588,2.3599,2.3656,2.3671,2.3691,2.3687,2.3701,2.3714,2.3716,2.3778,2.3747,2.3784,2.3847,2.3864,2.3881,2.3997,2.3971,2.4008,2.4075,2.4121,2.4135,2.4147,2.419,2.4206,2.4017,2.4018,2.4018,0,2.3644,2.3706,2.3688,2.3738,2.3758,2.3721,2.3779,2.3794,2.3825,2.384,2.381,2.3891,2.3902,2.3981,2.401,2.4024,2.404,2.4007,2.4134,2.4146,2.4157,2.4198,2.4215,2.4022,2.4022,2.4021,2.4021,0,2.3774,2.3818,2.3862,2.3894,2.3918,2.3972,2.3964,2.3991,2.3976,2.3976,2.404,2.4052,2.4089,2.4107,2.4092,2.4185,2.4168,2.4137,2.4085,2.4179,2.4218,2.4233,2.4029,2.4027,2.4026,2.4025,0,0,2.3921,2.3943,2.396,2.3975,2.3995,2.4029,2.4082,2.4119,2.4143,2.4166,2.4211,2.4267,2.4238,2.4257,2.4245,2.4285,2.4379,2.4248,2.4249,2.4274,2.4484,2.4509,2.4527,2.4362,2.4364,2.4367,2.4483,0,2.4029,2.4121,2.4108,2.4196,2.4238,2.4204,2.425,2.4269,2.427,2.4306,2.4307,2.4348,2.4306,2.4318,2.4356,2.4359,2.4421,2.435,2.4404,2.4407,2.4402,2.4547,2.4572,2.4681,2.4498,2.45,2.4502,0,2.4168,2.4197,2.429,2.4306,2.4323,2.4365,2.4399,2.4433,2.4454,2.4452,2.4475,2.4455,2.451,2.4456,2.4532,2.4484,2.4506,2.4511,2.4515,2.452,2.4461,2.4557,2.4715,2.4732,2.4525,2.4523,2.4521,0,2.4268,2.433,2.4394,2.4407,2.4428,2.4458,2.4468,2.4486,2.451,2.4539,2.4555,2.459,2.4609,2.4638,2.4629,2.4591,2.4708,2.4653,2.4709,2.4709,2.4735,2.4734,2.4901,2.4747,2.4747,2.4747,2.4746,0,2.4391,2.4449,2.4439,2.4479,2.4544,2.4529,2.4594,2.46,2.4617,2.4658,2.4631,2.467,2.4655,2.4694,2.4688,2.4753,2.4761,2.4762,2.476,2.4766,2.4766,2.478,2.4773,2.4751,2.475,2.4749,2.4749,0,2.4513,2.4509,2.4577,2.4591,2.4596,2.4644,2.4657,2.4695,2.4694,2.4747,2.4758,2.4758,2.4803,2.4797,2.4846,2.4842,2.4923,2.4911,2.4916,2.4914,2.4971,2.4967,2.5154,2.5178,2.5008,2.5009,2.5011,0,2.4592,2.4637,2.4657,2.4683,2.4695,2.4736,2.4761,2.4748,2.4774,2.4803,2.4838,2.488,2.4913,2.4986,2.4991,2.5029,2.5019,2.5082,2.5024,2.5029,2.5022,2.502,2.5025,2.5093,2.5095,2.5097,2.5098,0,2.4735,2.4731,2.4766,2.4803,2.4833,2.486,2.4885,2.4908,2.4897,2.4929,2.4974,2.5,2.5052,2.5094,2.5131,2.5142,2.512,2.5116,2.5132,2.5138,2.514,2.5142,2.4949,2.5112,2.5111,2.511,2.5109,2.5108,2.4839,2.4878,2.4899,2.494,2.4958,2.4982,2.5019,2.5024,2.5062,2.5103,2.5093,2.5145,2.5167,2.5214,2.5229,2.527,2.5247,2.5269,2.5275,2.5281,2.5288,2.5133,2.5276,2.5276,2.5276,2.5275,2.5275,0,2.4981,2.4993,2.5032,2.5068,2.5101,2.5077,2.5104,2.5134,2.518,2.5202,2.5236,2.5289,2.5331,2.534,2.538,2.5412,2.5403,2.5423,2.5421,2.5425,2.5305,2.5289,2.543,2.543,2.543,2.543,2.543,2.543,2.5059,2.5125,2.5124,2.5198,2.5209,2.526,2.5278,2.5301,2.5319,2.538,2.5415,2.5421,2.5438,2.548,2.5518,2.552,2.5537,2.5562,2.556,2.5448,2.5433,2.5418,2.5402,2.5565,2.5565,2.5675,2.5677,2.5677]},{"header":{"parameterUnit":"m.s-1","parameterCategory":1,"la1":30.2991,"la2":30.254,"lo1":-89.0895,"lo2":-89.0444,"dy":0.0017,"dx":0.0017,"nx":28,"ny":28,"refTime":"2024-06-30T21:00:00:Z","depth":0,"parameterNumber":3,"parameterNumberName":"V-component_of_WINDS"},"data":[0,0,0,0,0,0,0,0,0,0,0,0,0,0,0,0,0,0,0,0,0,0,0,0,0,0,0,0,0,0,0,0,0,0,0,0,0,0,0,0,0,0,0,0,0,0,0,0,0,0,0,0,0,0,0,0,0,0,-2.6209,-2.6211,0,-2.6347,-2.6349,-2.635,-2.6385,-2.6384,-2.6384,-2.6383,-2.6524,-2.6528,-2.6533,0,0,0,0,0,0,0,0,0,0,0,0,0,-2.5976,-2.598,-2.6209,-2.6211,-2.6213,-2.6347,-2.6349,-2.6351,-2.6386,-2.6384,-2.6383,-2.6382,-2.6522,-2.6528,-2.6533,0,0,0,0,0,0,0,0,0,0,0,0,0,-2.6092,-2.5981,-2.6209,-2.6246,-2.6251,-2.6347,-2.6349,-2.6351,-2.6386,-2.6384,-2.6383,-2.6382,-2.6521,-2.6527,-2.6534,-2.6603,0,0,-2.6555,-2.6558,0,0,0,0,0,0,0,0,-2.6085,-2.61,-2.6239,-2.6244,-2.6249,-2.6348,-2.6319,-2.6436,-2.6386,-2.6334,-2.6383,-2.6381,-2.6466,-2.6478,-2.6506,-2.6609,-2.6615,-2.6556,-2.656,-2.6563,-2.6565,0,0,0,0,0,0,0,-2.6077,-2.6095,-2.6264,-2.6241,-2.6247,-2.6256,-2.6271,-2.6341,-2.6406,-2.6339,-2.6342,-2.6358,-2.6469,-2.65,-2.651,-2.6618,-2.6556,-2.6562,-2.6566,-2.6569,-2.6785,-2.6786,0,0,0,0,0,0,-2.6063,-2.6088,-2.6259,-2.6268,-2.6162,-2.6261,-2.6278,-2.6317,-2.6405,-2.6418,-2.6359,-2.6359,-2.6489,-2.6502,-2.6515,-2.6602,-2.6563,-2.6569,-2.6573,-2.6783,-2.6785,-2.6787,0,0,0,0,0,0,-2.6057,-2.6078,-2.6254,-2.6179,-2.6202,-2.6267,-2.6311,-2.6321,-2.6352,-2.642,-2.6432,-2.6378,-2.6488,-2.6505,-2.6581,-2.6607,-2.6572,-2.6579,-2.6781,-2.6784,-2.6786,-2.6776,0,0,0,0,0,0,-2.6051,-2.6075,-2.6102,-2.6179,-2.6206,-2.6317,-2.6312,-2.6324,-2.6363,-2.6365,-2.6442,-2.6453,-2.6488,-2.6571,-2.6588,-2.6616,-2.6584,-2.6779,-2.6783,-2.6785,-2.6774,-2.6777,-2.678,0,0,0,0,0,-2.6042,-2.6093,-2.6103,-2.6124,-2.624,-2.6319,-2.6334,-2.6373,-2.6365,-2.6393,-2.6437,-2.6451,-2.6602,-2.6578,-2.6598,-2.6628,-2.6778,-2.6782,-2.6785,-2.6772,-2.6777,-2.678,0,0,0,0,0,0,-2.6017,-2.6104,-2.6116,-2.6193,-2.6248,-2.6324,-2.636,-2.6377,-2.6435,-2.6434,-2.648,-2.6498,-2.657,-2.6607,-2.6579,-2.67,-2.669,-2.6698,-2.6673,-2.6678,-2.6681,-2.6671,-2.659,0,0,0,0,0,-2.6021,-2.6077,-2.615,-2.6211,-2.6238,-2.6294,-2.633,-2.6356,-2.6415,-2.6438,-2.6488,-2.6544,-2.6605,-2.6643,-2.6703,-2.6779,-2.6797,-2.681,-2.6814,-2.6816,-2.6822,-2.6866,-2.6873,-2.6799,-2.6799,-2.6799,0,0,-2.6029,-2.6083,-2.6116,-2.6208,-2.6253,-2.6311,-2.6314,-2.6374,-2.6418,-2.6447,-2.6522,-2.656,-2.6627,-2.6703,-2.674,-2.6736,-2.6847,-2.6821,-2.6822,-2.6827,-2.6871,-2.6878,-2.6884,-2.6802,-2.6801,-2.6801,0,0,-2.6072,-2.6119,-2.6176,-2.6222,-2.6291,-2.6328,-2.6342,-2.6416,-2.6442,-2.6518,-2.6542,-2.6594,-2.6697,-2.6743,-2.678,-2.6843,-2.6858,-2.6861,-2.6878,-2.692,-2.6926,-2.6932,-2.6955,-2.6962,-2.6867,-2.6867,-2.6867,0,-2.6073,-2.6161,-2.6203,-2.6263,-2.6303,-2.6333,-2.6391,-2.6433,-2.6518,-2.6545,-2.654,-2.6671,-2.6717,-2.6806,-2.6821,-2.685,-2.6867,-2.6852,-2.6922,-2.6928,-2.6934,-2.6956,-2.6964,-2.6867,-2.6867,-2.6867,-2.6867,0,-2.6159,-2.622,-2.6257,-2.6339,-2.6383,-2.6442,-2.6492,-2.6532,-2.6555,-2.6592,-2.667,-2.6727,-2.6799,-2.6822,-2.6844,-2.6914,-2.6909,-2.6913,-2.6903,-2.694,-2.6962,-2.6971,-2.6867,-2.6867,-2.6867,-2.6867,0,0,-2.619,-2.6295,-2.6308,-2.6346,-2.6425,-2.6473,-2.6533,-2.6604,-2.6637,-2.6695,-2.6747,-2.6834,-2.6838,-2.688,-2.6908,-2.6945,-2.6992,-2.6944,-2.6946,-2.6951,-2.7073,-2.707,-2.7079,-2.7002,-2.7004,-2.7006,-2.7068,0,-2.6244,-2.6353,-2.6393,-2.6482,-2.6539,-2.6569,-2.6621,-2.6676,-2.6713,-2.6767,-2.6808,-2.6869,-2.6869,-2.6895,-2.6933,-2.6978,-2.7017,-2.6974,-2.7052,-2.7054,-2.7034,-2.7091,-2.7088,-2.7143,-2.7076,-2.7078,-2.7079,0,-2.6321,-2.638,-2.6475,-2.6548,-2.6574,-2.662,-2.6689,-2.674,-2.6802,-2.6827,-2.6874,-2.69,-2.6965,-2.6951,-2.7042,-2.7012,-2.7046,-2.7073,-2.7076,-2.7085,-2.7068,-2.7101,-2.7162,-2.717,-2.7093,-2.7092,-2.7091,0,-2.6335,-2.6438,-2.6509,-2.654,-2.6627,-2.6659,-2.6697,-2.6758,-2.6799,-2.6858,-2.6885,-2.6951,-2.6988,-2.7039,-2.7082,-2.7068,-2.7169,-2.7159,-2.7191,-2.719,-2.721,-2.7209,-2.7278,-2.7232,-2.7232,-2.7232,-2.7232,0,-2.6391,-2.6448,-2.6516,-2.656,-2.6625,-2.667,-2.6733,-2.6773,-2.6828,-2.688,-2.6909,-2.6958,-2.7012,-2.7067,-2.7101,-2.7171,-2.7187,-2.7209,-2.7217,-2.7206,-2.7204,-2.7229,-2.7226,-2.7234,-2.7234,-2.7233,-2.7233,0,-2.6417,-2.6465,-2.6544,-2.662,-2.664,-2.6685,-2.675,-2.6794,-2.6833,-2.6898,-2.6916,-2.6977,-2.7044,-2.7092,-2.7178,-2.7201,-2.7276,-2.7284,-2.7255,-2.7259,-2.7289,-2.7285,-2.7377,-2.7391,-2.7336,-2.7336,-2.7336,0,-2.6449,-2.6494,-2.6575,-2.6612,-2.665,-2.6709,-2.675,-2.6797,-2.6839,-2.6914,-2.6949,-2.7018,-2.7075,-2.718,-2.7233,-2.7299,-2.7309,-2.7337,-2.7319,-2.7307,-2.731,-2.7307,-2.7312,-2.7339,-2.7339,-2.734,-2.734,0,-2.6502,-2.6524,-2.6582,-2.6649,-2.6698,-2.6753,-2.6808,-2.6837,-2.6894,-2.6939,-2.7008,-2.7053,-2.7141,-2.7209,-2.7281,-2.732,-2.734,-2.7345,-2.7356,-2.7345,-2.7326,-2.7337,-2.7262,-2.7343,-2.7342,-2.7342,-2.7342,-2.7342,-2.6533,-2.6574,-2.6638,-2.6702,-2.6749,-2.68,-2.6845,-2.689,-2.6948,-2.7023,-2.7048,-2.7119,-2.7182,-2.728,-2.732,-2.7377,-2.7376,-2.7392,-2.7396,-2.7399,-2.7399,-2.7317,-2.739,-2.739,-2.739,-2.739,-2.739,0,-2.6587,-2.663,-2.6689,-2.6766,-2.6816,-2.6831,-2.6893,-2.6935,-2.6997,-2.7054,-2.711,-2.719,-2.7256,-2.7314,-2.7383,-2.7417,-2.7428,-2.7434,-2.7432,-2.7441,-2.7395,-2.7379,-2.7424,-2.7424,-2.7424,-2.7424,-2.7424,-2.7424,-2.6622,-2.6693,-2.6722,-2.6817,-2.686,-2.693,-2.6964,-2.7012,-2.7058,-2.7145,-2.7201,-2.7238,-2.7295,-2.7369,-2.7431,-2.7447,-2.7471,-2.7474,-2.7492,-2.7448,-2.7444,-2.744,-2.7425,-2.7479,-2.7479,-2.7533,-2.7533,-2.7534]}]]